Location: Sungai Bunut
(2.6333°N, 113.7333°E)
Time: 10:52:18
(UTC+00:00)

Transit 2A Rocket - Pass Details

Date: 11 December 2023
Orbit: 590 x 905 km, 66.7° (Epoch: 01 March)

Event Time Altitude Azimuth Distance (km) Brightness Sun altitude
Rises 10:28:26 0° 199° (SSW) 3,333 9.0 -3.4°
Reaches altitude 10° 10:30:58 10° 198° (SSW) 2,351 8.2 -4.0°
Maximum altitude 10:36:21 85° 109° (ESE) 742 5.0 -5.2°
Drops below altitude 10° 10:41:13 10° 21° (NNE) 2,133 6.9 -6.3°
Sets 10:43:25 0° 21° (NNE) 3,000 7.7 -6.8°
